Location: Helsinki
(60.1699°N, 24.9384°E)
Time: 21:57:25
(UTC+03:00)

Vanguard 2 Rocket - All Passes

Search period start: 02 October 2022 00:00
Search period end: 12 October 2022 00:00
Orbit: 553 x 3323 km, 32.9° (Epoch: 02 October)

Date Brightness Start Highest point End Pass type
(mag) Time Alt. Az. Time Alt. Az. Time Alt. Az.
03 Oct - 23:49:34 10° S 23:50:37 10° S 23:51:39 10° SSE visible
05 Oct - 00:58:39 10° SSW 01:02:42 12° S 01:06:09 10° SSE night (unlit)
05 Oct - 23:57:03 10° SSW 00:02:44 14° S 00:07:27 10° SSE visible
06 Oct - 02:12:24 10° SSW 02:14:29 11° SSW 02:16:23 10° S night (unlit)
06 Oct - 22:56:07 10° SSW 23:02:34 14° S 23:07:58 10° SE visible
07 Oct - 01:09:10 10° SW 01:14:45 14° SSW 01:19:18 10° SSE visible
07 Oct - 21:55:59 10° S 22:02:15 13° SSE 22:07:39 10° SE visible
08 Oct - 00:07:07 10° SW 00:14:46 16° S 00:20:48 10° SSE visible
08 Oct - 02:24:29 10° SW 02:26:24 11° SSW 02:28:11 10° SSW night (unlit)
08 Oct - 20:57:17 10° SSE 21:01:50 11° SSE 21:06:00 10° SE visible
08 Oct - 23:05:36 10° SSW 23:14:33 17° S 23:21:37 10° SE visible
09 Oct - 01:20:27 10° SW 01:26:42 15° SSW 01:31:44 10° S visible
09 Oct - 22:04:37 10° SSW 22:14:07 17° SSE 22:21:51 10° SE visible
10 Oct - 00:17:57 10° SW 00:26:42 18° S 00:33:29 10° SSE visible
10 Oct - 21:04:23 10° S 21:13:34 16° SSE 21:21:23 10° SE visible
10 Oct - 23:15:59 10° SW 23:26:26 20° S 23:34:31 10° SE visible
11 Oct - 01:32:17 10° SW 01:38:29 14° SSW 01:43:34 10° S visible
11 Oct - 20:05:17 10° S 20:12:58 14° SSE 20:19:54 10° SE visible
11 Oct - 22:14:31 10° SSW 22:25:56 20° S 22:35:01 10° SE visible
